Home   Weather   Township of Washington   Past weeks
Flag for USA

Past Weather in Township of Washington, Arkansas, USA — Yesterday and Last 2 Weeks

Now
39 °F

Fog.


Feels Like: 35 °F
Forecast: 53 / 36 °F
Wind: 6 mph from Northwest

Location: Adams Field

Current Time: Feb 20, 2019 at 12:14:19 pm

Latest Report: Feb 20, 2019 at 6:53 am


Visibility: 6 mi

Pressure: 29.87 "Hg

Humidity: 96%

Dew Point: 38 °F

Location of Township of WashingtonLocation

Past Weather in Township of Washington — Graph

°F

Township of Washington Temperature Yesterday

Maximum temperature yesterday: 37 °F (at 9:30 pm)
Minimum temperature yesterday: 33 °F (at 5:53 am)
Average temperature yesterday: 35 °F

High & Low Weather Summary for the Past Weeks

 TemperatureHumidityPressure
High73 °F (Feb 5, 1:02 pm)100% (Feb 5, 5:00 am)30.78 "Hg (Feb 5, 5:00 am)
Low21 °F (Feb 8, 5:53 am)25% (Feb 13, 2:53 pm)29.69 "Hg (Feb 14, 1:53 pm)
Average45 °F79%30.07 "Hg
* Reported Feb 5 5:00 am — Feb 20 5:53 am, Township of Washington. Weather by CustomWeather, © 2019

Note: Actual official high and low records may vary slightly from our data, if they occured in-between our weather recording intervals... More about our weather records

Advertising

Township of Washington Weather History for the Previous 24 Hours

Scroll right to see more
 ConditionsComfort  
Time TempWeatherWind HumidityBarometerVisibility
5:53 am
Wed, Feb 20
39 °FLow clouds.No wind93%29.88 "Hg10 mi
4:53 am39 °FLow clouds.3 mph93%29.86 "Hg10 mi
3:53 am39 °FLow clouds.No wind89%29.85 "Hg10 mi
2:53 am38 °FMostly cloudy.6 mph97%29.87 "Hg7 mi
1:53 am38 °FOvercast.8 mph93%29.88 "Hg7 mi
1:26 am38 °FFog.21 mph93%29.89 "Hg5 mi
12:53 am37 °FLight rain. Fog.7 mph96%29.92 "Hg3 mi
12:21 am37 °FLight rain. Fog.7 mph96%29.92 "Hg4 mi
11:53 pm
Tue, Feb 19
37 °FThunderstorms. Fog.7 mph96%29.93 "Hg3 mi
11:32 pm37 °FThunderstorms. Fog.12 mph96%29.90 "Hg3 mi
10:53 pm37 °FLight rain. Fog.7 mph96%29.93 "Hg5 mi
10:33 pm37 °FFog.9 mph96%29.91 "Hg4 mi
9:53 pm37 °FThunderstorms. Fog.16 mph93%29.92 "Hg5 mi
9:40 pm37 °FThunderstorms. Fog.13 mph93%29.92 "Hg2 mi
9:30 pm37 °FThunderstorms. Fog.14 mph93%29.93 "Hg6 mi
9:00 pm36 °FLight rain. Fog.13 mph97%29.96 "Hg6 mi
8:29 pm36 °FLight rain. Fog.9 mph97%29.99 "Hg2 mi
8:12 pm36 °FLight rain. Fog.10 mph97%29.99 "Hg2 mi
6:53 pm36 °FLight rain. Fog.13 mph92%30.03 "Hg5 mi
5:53 pm35 °FLight rain. Fog.10 mph92%30.05 "Hg5 mi
5:15 pm34 °FLight rain. Fog.17 mph92%30.03 "Hg3 mi
4:53 pm34 °FStrong thunderstorms. Fog.13 mph92%30.09 "Hg1 mi
4:03 pm33 °FStrong thunderstorms. Fog.10 mph96%30.10 "Hg1 mi
3:53 pm33 °FThunderstorms. Fog.16 mph92%30.08 "Hg2 mi
3:21 pm33 °FRain. Fog.15 mph92%30.12 "Hg2 mi
2:53 pm33 °FRain. Fog.14 mph92%30.17 "Hg2 mi
2:24 pm33 °FLight rain. Fog.15 mph92%30.16 "Hg2 mi
2:15 pm34 °FRain. Fog.15 mph88%30.16 "Hg1 mi
1:53 pm33 °FLight rain. Fog.12 mph88%30.23 "Hg2 mi
1:15 pm33 °FLight rain. Fog.13 mph88%30.22 "Hg3 mi
12:53 pm34 °FLight rain. Fog.8 mph85%30.25 "Hg4 mi
12:30 pm34 °FLight rain. Fog.16 mph85%30.23 "Hg4 mi
Weather by CustomWeather, © 2019

See weather overview